Year,Month,Day,Hour,Minute,Value (Times are PST for temperature in C)
2015,04,19,00,00,9.20
2015,04,19,00,01,9.30
2015,04,19,00,02,9.30
2015,04,19,00,03,9.30
2015,04,19,00,04,9.30
2015,04,19,00,05,9.30
2015,04,19,00,06,9.30
2015,04,19,00,07,9.40
2015,04,19,00,08,9.40
2015,04,19,00,09,9.50
2015,04,19,00,10,9.40
2015,04,19,00,11,9.40
2015,04,19,00,12,9.40
2015,04,19,00,13,9.30
2015,04,19,00,14,9.30
2015,04,19,00,15,9.30
2015,04,19,00,16,9.30
2015,04,19,00,17,9.30
2015,04,19,00,18,9.40
2015,04,19,00,19,9.40
2015,04,19,00,20,9.40
2015,04,19,00,21,9.40
2015,04,19,00,22,9.40
2015,04,19,00,23,9.40
2015,04,19,00,24,9.40
2015,04,19,00,25,9.50
2015,04,19,00,26,9.50
2015,04,19,00,27,9.60
2015,04,19,00,28,9.60
2015,04,19,00,29,9.50
2015,04,19,00,30,9.50
2015,04,19,00,31,9.40
2015,04,19,00,32,9.40
2015,04,19,00,33,9.40
2015,04,19,00,34,9.40
2015,04,19,00,35,9.40
2015,04,19,00,36,9.40
2015,04,19,00,37,9.50
2015,04,19,00,38,9.50
2015,04,19,00,39,9.60
2015,04,19,00,40,9.60
2015,04,19,00,41,9.60
2015,04,19,00,42,9.70
2015,04,19,00,43,9.70
2015,04,19,00,44,9.80
2015,04,19,00,45,9.80
2015,04,19,00,46,9.80
2015,04,19,00,47,9.90
2015,04,19,00,48,9.90
2015,04,19,00,49,10.00
2015,04,19,00,50,10.10
2015,04,19,00,51,10.10
2015,04,19,00,52,10.20
2015,04,19,00,53,10.20
2015,04,19,00,54,10.20
2015,04,19,00,55,10.30
2015,04,19,00,56,10.30
2015,04,19,00,57,10.30
2015,04,19,00,58,10.30
2015,04,19,00,59,10.40
2015,04,19,01,00,10.30
2015,04,19,01,01,10.30
2015,04,19,01,02,10.30
2015,04,19,01,03,10.30
2015,04,19,01,04,10.30
2015,04,19,01,05,10.40
2015,04,19,01,06,10.50
2015,04,19,01,07,10.60
2015,04,19,01,08,10.70
2015,04,19,01,09,10.80
2015,04,19,01,10,10.90
2015,04,19,01,11,11.00
2015,04,19,01,12,11.10
2015,04,19,01,13,11.20
2015,04,19,01,14,11.30
2015,04,19,01,15,11.40
2015,04,19,01,16,11.50
2015,04,19,01,17,11.60
2015,04,19,01,18,11.70
2015,04,19,01,19,11.80
2015,04,19,01,20,11.80
2015,04,19,01,21,11.90
2015,04,19,01,22,11.90
2015,04,19,01,23,11.90
2015,04,19,01,24,11.90
2015,04,19,01,25,11.90
2015,04,19,01,26,11.90
2015,04,19,01,27,11.90
2015,04,19,01,28,11.80
2015,04,19,01,29,11.80
2015,04,19,01,30,11.70
2015,04,19,01,31,11.60
2015,04,19,01,32,11.60
2015,04,19,01,33,11.60
2015,04,19,01,34,11.60
2015,04,19,01,35,11.60
2015,04,19,01,36,11.60
2015,04,19,01,37,11.60
2015,04,19,01,38,11.60
2015,04,19,01,39,11.60
2015,04,19,01,40,11.60
2015,04,19,01,41,11.50
2015,04,19,01,42,11.50
2015,04,19,01,43,11.50
2015,04,19,01,44,11.40
2015,04,19,01,45,11.40
2015,04,19,01,46,11.40
2015,04,19,01,47,11.40
2015,04,19,01,48,11.40
2015,04,19,01,49,11.30
2015,04,19,01,50,11.30
2015,04,19,01,51,11.20
2015,04,19,01,52,11.10
2015,04,19,01,53,11.00
2015,04,19,01,54,10.90
2015,04,19,01,55,10.80
2015,04,19,01,56,10.70
2015,04,19,01,57,10.60
2015,04,19,01,58,10.50
2015,04,19,01,59,10.40
2015,04,19,02,00,10.30
2015,04,19,02,01,10.20
2015,04,19,02,02,10.10
2015,04,19,02,03,10.00
2015,04,19,02,04,9.90
2015,04,19,02,05,9.80
2015,04,19,02,06,9.70
2015,04,19,02,07,9.70
2015,04,19,02,08,9.60
2015,04,19,02,09,9.50
2015,04,19,02,10,9.30
2015,04,19,02,11,9.30
2015,04,19,02,12,9.20
2015,04,19,02,13,9.20
2015,04,19,02,14,9.20
2015,04,19,02,15,9.10
2015,04,19,02,16,9.10
2015,04,19,02,17,9.00
2015,04,19,02,18,8.90
2015,04,19,02,19,8.80
2015,04,19,02,20,8.80
2015,04,19,02,21,8.70
2015,04,19,02,22,8.70
2015,04,19,02,23,8.70
2015,04,19,02,24,8.60
2015,04,19,02,25,8.50
2015,04,19,02,26,8.50
2015,04,19,02,27,8.40
2015,04,19,02,28,8.40
2015,04,19,02,29,8.30
2015,04,19,02,30,8.30
2015,04,19,02,31,8.30
2015,04,19,02,32,8.30
2015,04,19,02,33,8.20
2015,04,19,02,34,8.20
2015,04,19,02,35,8.10
2015,04,19,02,36,8.10
2015,04,19,02,37,8.10
2015,04,19,02,38,8.00
2015,04,19,02,39,8.00
2015,04,19,02,40,7.90
2015,04,19,02,41,7.90
2015,04,19,02,42,7.80
2015,04,19,02,43,7.80
2015,04,19,02,44,7.80
2015,04,19,02,45,7.80
2015,04,19,02,46,7.80
2015,04,19,02,47,7.70
2015,04,19,02,48,7.70
2015,04,19,02,49,7.70
2015,04,19,02,50,7.70
2015,04,19,02,51,7.70
2015,04,19,02,52,7.60
2015,04,19,02,53,7.60
2015,04,19,02,54,7.60
2015,04,19,02,55,7.70
2015,04,19,02,56,7.70
2015,04,19,02,57,7.70
2015,04,19,02,58,7.70
2015,04,19,02,59,7.70
2015,04,19,03,00,7.70
2015,04,19,03,01,7.70
2015,04,19,03,02,7.60
2015,04,19,03,03,7.60
2015,04,19,03,04,7.60
2015,04,19,03,05,7.60
2015,04,19,03,06,7.50
2015,04,19,03,07,7.50
2015,04,19,03,08,7.50
2015,04,19,03,09,7.40
2015,04,19,03,10,7.40
2015,04,19,03,11,7.40
2015,04,19,03,12,7.40
2015,04,19,03,13,7.40
2015,04,19,03,14,7.30
2015,04,19,03,15,7.30
2015,04,19,03,16,7.30
2015,04,19,03,17,7.30
2015,04,19,03,18,7.30
2015,04,19,03,19,7.30
2015,04,19,03,20,7.30
2015,04,19,03,21,7.30
2015,04,19,03,22,7.30
2015,04,19,03,23,7.30
2015,04,19,03,24,7.20
2015,04,19,03,25,7.20
2015,04,19,03,26,7.20
2015,04,19,03,27,7.20
2015,04,19,03,28,7.20
2015,04,19,03,29,7.20
2015,04,19,03,30,7.20
2015,04,19,03,31,7.10
2015,04,19,03,32,7.10
2015,04,19,03,33,7.10
2015,04,19,03,34,7.10
2015,04,19,03,35,7.10
2015,04,19,03,36,7.10
2015,04,19,03,37,7.10
2015,04,19,03,38,7.10
2015,04,19,03,39,7.10
2015,04,19,03,40,7.10
2015,04,19,03,41,7.10
2015,04,19,03,42,7.10
2015,04,19,03,43,7.10
2015,04,19,03,44,7.20
2015,04,19,03,45,7.20
2015,04,19,03,46,7.20
2015,04,19,03,47,7.20
2015,04,19,03,48,7.20
2015,04,19,03,49,7.20
2015,04,19,03,50,7.30
2015,04,19,03,51,7.30
2015,04,19,03,52,7.40
2015,04,19,03,53,7.40
2015,04,19,03,54,7.40
2015,04,19,03,55,7.50
2015,04,19,03,56,7.50
2015,04,19,03,57,7.50
2015,04,19,03,58,7.50
2015,04,19,03,59,7.50
2015,04,19,04,00,7.50
2015,04,19,04,01,7.50
2015,04,19,04,02,7.50
2015,04,19,04,03,7.50
2015,04,19,04,04,7.50
2015,04,19,04,05,7.60
2015,04,19,04,06,7.60
2015,04,19,04,07,7.60
2015,04,19,04,08,7.60
2015,04,19,04,09,7.60
2015,04,19,04,10,7.70
2015,04,19,04,11,7.70
2015,04,19,04,12,7.70
2015,04,19,04,13,7.80
2015,04,19,04,14,7.80
2015,04,19,04,15,7.80
2015,04,19,04,16,7.90
2015,04,19,04,17,7.90
2015,04,19,04,18,8.00
2015,04,19,04,19,8.00
2015,04,19,04,20,8.10
2015,04,19,04,21,8.10
2015,04,19,04,22,8.10
2015,04,19,04,23,8.20
2015,04,19,04,24,8.10
2015,04,19,04,25,8.20
2015,04,19,04,26,8.10
2015,04,19,04,27,8.20
2015,04,19,04,28,8.20
2015,04,19,04,29,8.20
2015,04,19,04,30,8.20
2015,04,19,04,31,8.20
2015,04,19,04,32,8.20
2015,04,19,04,33,8.30
2015,04,19,04,34,8.40
2015,04,19,04,35,8.40
2015,04,19,04,36,8.50
2015,04,19,04,37,8.50
2015,04,19,04,38,8.60
2015,04,19,04,39,8.60
2015,04,19,04,40,8.60
2015,04,19,04,41,8.60
2015,04,19,04,42,8.50
2015,04,19,04,43,8.50
2015,04,19,04,44,8.40
2015,04,19,04,45,8.30
2015,04,19,04,46,8.20
2015,04,19,04,47,8.20
2015,04,19,04,48,8.10
2015,04,19,04,49,8.00
2015,04,19,04,50,8.00
2015,04,19,04,51,8.00
2015,04,19,04,52,7.90
2015,04,19,04,53,7.90
2015,04,19,04,54,7.90
2015,04,19,04,55,7.80
2015,04,19,04,56,7.90
2015,04,19,04,57,7.90
2015,04,19,04,58,8.10
2015,04,19,04,59,8.10
2015,04,19,05,00,8.10
2015,04,19,05,01,8.00
2015,04,19,05,02,7.90
2015,04,19,05,03,7.80
2015,04,19,05,04,7.70
2015,04,19,05,05,7.60
2015,04,19,05,06,7.50
2015,04,19,05,07,7.50
2015,04,19,05,08,7.40
2015,04,19,05,09,7.30
2015,04,19,05,10,7.20
2015,04,19,05,11,7.20
2015,04,19,05,12,7.10
2015,04,19,05,13,7.10
2015,04,19,05,14,7.10
2015,04,19,05,15,7.10
2015,04,19,05,16,7.10
2015,04,19,05,17,7.10
2015,04,19,05,18,7.10
2015,04,19,05,19,7.10
2015,04,19,05,20,7.10
2015,04,19,05,21,7.00
2015,04,19,05,22,7.00
2015,04,19,05,23,7.00
2015,04,19,05,24,6.90
2015,04,19,05,25,6.90
2015,04,19,05,26,6.90
2015,04,19,05,27,6.90
2015,04,19,05,28,6.80
2015,04,19,05,29,6.80
2015,04,19,05,30,6.80
2015,04,19,05,31,6.80
2015,04,19,05,32,6.90
2015,04,19,05,33,6.90
2015,04,19,05,34,6.90
2015,04,19,05,35,7.00
2015,04,19,05,36,7.00
2015,04,19,05,37,7.10
2015,04,19,05,38,7.10
2015,04,19,05,39,7.00
2015,04,19,05,40,7.00
2015,04,19,05,41,7.00
2015,04,19,05,42,6.90
2015,04,19,05,43,6.90
2015,04,19,05,44,6.80
2015,04,19,05,45,6.80
2015,04,19,05,46,6.70
2015,04,19,05,47,6.70
2015,04,19,05,48,6.70
2015,04,19,05,49,6.70
2015,04,19,05,50,6.70
2015,04,19,05,51,6.70
2015,04,19,05,52,6.70
2015,04,19,05,53,6.70
2015,04,19,05,54,6.60
2015,04,19,05,55,6.60
2015,04,19,05,56,6.50
2015,04,19,05,57,6.50
2015,04,19,05,58,6.40
2015,04,19,05,59,6.30
2015,04,19,06,00,6.30
2015,04,19,06,01,6.30
2015,04,19,06,02,6.20
2015,04,19,06,03,6.20
2015,04,19,06,04,6.20
2015,04,19,06,05,6.20
2015,04,19,06,06,6.20
2015,04,19,06,07,6.20
2015,04,19,06,08,6.30
2015,04,19,06,09,6.30
2015,04,19,06,10,6.30
2015,04,19,06,11,6.40
2015,04,19,06,12,6.40
2015,04,19,06,13,6.50
2015,04,19,06,14,6.50
2015,04,19,06,15,6.60
2015,04,19,06,16,6.60
2015,04,19,06,17,6.70
2015,04,19,06,18,6.70
2015,04,19,06,19,6.70
2015,04,19,06,20,6.80
2015,04,19,06,21,6.80
2015,04,19,06,22,6.80
2015,04,19,06,23,6.80
2015,04,19,06,24,6.70
2015,04,19,06,25,6.70
2015,04,19,06,26,6.70
2015,04,19,06,27,6.70
2015,04,19,06,28,6.60
2015,04,19,06,29,6.60
2015,04,19,06,30,6.60
2015,04,19,06,31,6.60
2015,04,19,06,32,6.60
2015,04,19,06,33,6.60
2015,04,19,06,34,6.60
2015,04,19,06,35,6.60
2015,04,19,06,36,6.70
2015,04,19,06,37,6.80
2015,04,19,06,38,6.80
2015,04,19,06,39,6.90
2015,04,19,06,40,6.90
2015,04,19,06,41,7.10
2015,04,19,06,42,7.20
2015,04,19,06,43,7.30
2015,04,19,06,44,7.50
2015,04,19,06,45,7.60
2015,04,19,06,46,7.70
2015,04,19,06,47,7.80
2015,04,19,06,48,8.00
2015,04,19,06,49,8.10
2015,04,19,06,50,8.30
2015,04,19,06,51,8.40
2015,04,19,06,52,8.60
2015,04,19,06,53,8.70
2015,04,19,06,54,8.90
2015,04,19,06,55,9.00
2015,04,19,06,56,9.10
2015,04,19,06,57,9.20
2015,04,19,06,58,9.30
2015,04,19,06,59,9.30
2015,04,19,07,00,9.40
2015,04,19,07,01,9.40
2015,04,19,07,02,9.40
2015,04,19,07,03,9.40
2015,04,19,07,04,9.50
2015,04,19,07,05,9.60
2015,04,19,07,06,9.60
2015,04,19,07,07,9.70
2015,04,19,07,08,9.70
2015,04,19,07,09,9.80
2015,04,19,07,10,9.80
2015,04,19,07,11,9.90
2015,04,19,07,12,9.90
2015,04,19,07,13,10.00
2015,04,19,07,14,10.00
2015,04,19,07,15,10.10
2015,04,19,07,16,10.10
2015,04,19,07,17,10.10
2015,04,19,07,18,10.10
2015,04,19,07,19,10.10
2015,04,19,07,20,10.20
2015,04,19,07,21,10.20
2015,04,19,07,22,10.20
2015,04,19,07,23,10.20
2015,04,19,07,24,10.20
2015,04,19,07,25,10.20
2015,04,19,07,26,10.20
2015,04,19,07,27,10.20
2015,04,19,07,28,10.20
2015,04,19,07,29,10.20
2015,04,19,07,30,10.20
2015,04,19,07,31,10.20
2015,04,19,07,32,10.20
2015,04,19,07,33,10.30
2015,04,19,07,34,10.30
2015,04,19,07,35,10.30
2015,04,19,07,36,10.40
2015,04,19,07,37,10.40
2015,04,19,07,38,10.40
2015,04,19,07,39,10.50
2015,04,19,07,40,10.60
2015,04,19,07,41,10.60
2015,04,19,07,42,10.70
2015,04,19,07,43,10.70
2015,04,19,07,44,10.70
2015,04,19,07,45,10.80
2015,04,19,07,46,10.80
2015,04,19,07,47,10.80
2015,04,19,07,48,10.90
2015,04,19,07,49,10.90
2015,04,19,07,50,10.90
2015,04,19,07,51,11.00
2015,04,19,07,52,11.00
2015,04,19,07,53,11.10
2015,04,19,07,54,11.20
2015,04,19,07,55,11.20
2015,04,19,07,56,11.30
2015,04,19,07,57,11.30
2015,04,19,07,58,11.30
2015,04,19,07,59,11.40
2015,04,19,08,00,11.40
2015,04,19,08,01,11.50
2015,04,19,08,02,11.50
2015,04,19,08,03,11.50
2015,04,19,08,04,11.60
2015,04,19,08,05,11.60
2015,04,19,08,06,11.60
2015,04,19,08,07,11.60
2015,04,19,08,08,11.70
2015,04,19,08,09,11.70
2015,04,19,08,10,11.70
2015,04,19,08,11,11.80
2015,04,19,08,12,11.80
2015,04,19,08,13,11.80
2015,04,19,08,14,11.90
2015,04,19,08,15,11.90
2015,04,19,08,16,12.00
2015,04,19,08,17,12.00
2015,04,19,08,18,12.00
2015,04,19,08,19,12.10
2015,04,19,08,20,12.10
2015,04,19,08,21,12.10
2015,04,19,08,22,12.20
2015,04,19,08,23,12.20
2015,04,19,08,24,12.20
2015,04,19,08,25,12.30
2015,04,19,08,26,12.30
2015,04,19,08,27,12.30
2015,04,19,08,28,12.30
2015,04,19,08,29,12.30
2015,04,19,08,30,12.40
2015,04,19,08,31,12.40
2015,04,19,08,32,12.40
2015,04,19,08,33,12.40
2015,04,19,08,34,12.40
2015,04,19,08,35,12.50
2015,04,19,08,36,12.50
2015,04,19,08,37,12.50
2015,04,19,08,38,12.60
2015,04,19,08,39,12.60
2015,04,19,08,40,12.60
2015,04,19,08,41,12.60
2015,04,19,08,42,12.60
2015,04,19,08,43,12.70
2015,04,19,08,44,12.70
2015,04,19,08,45,12.80
2015,04,19,08,46,12.80
2015,04,19,08,47,12.80
2015,04,19,08,48,12.90
2015,04,19,08,49,12.90
2015,04,19,08,50,13.00
2015,04,19,08,51,13.00
2015,04,19,08,52,13.00
2015,04,19,08,53,13.10
2015,04,19,08,54,13.10
2015,04,19,08,55,13.20
2015,04,19,08,56,13.20
2015,04,19,08,57,13.30
2015,04,19,08,58,13.30
2015,04,19,08,59,13.30
2015,04,19,09,00,13.40
2015,04,19,09,01,13.40
2015,04,19,09,02,13.40
2015,04,19,09,03,13.50
2015,04,19,09,04,13.60
2015,04,19,09,05,13.60
2015,04,19,09,06,13.60
2015,04,19,09,07,13.60
2015,04,19,09,08,13.70
2015,04,19,09,09,13.70
2015,04,19,09,10,13.80
2015,04,19,09,11,13.80
2015,04,19,09,12,13.90
2015,04,19,09,13,13.90
2015,04,19,09,14,14.00
2015,04,19,09,15,14.00
2015,04,19,09,16,14.10
2015,04,19,09,17,14.10
2015,04,19,09,18,14.10
2015,04,19,09,19,14.10
2015,04,19,09,20,14.10
2015,04,19,09,21,14.10
2015,04,19,09,22,14.20
2015,04,19,09,23,14.20
2015,04,19,09,24,14.20
2015,04,19,09,25,14.20
2015,04,19,09,26,14.30
2015,04,19,09,27,14.20
2015,04,19,09,28,14.20
2015,04,19,09,29,14.20
2015,04,19,09,30,14.20
2015,04,19,09,31,14.20
2015,04,19,09,32,14.20
2015,04,19,09,33,14.20
2015,04,19,09,34,14.20
2015,04,19,09,35,14.20
2015,04,19,09,36,14.20
2015,04,19,09,37,14.20
2015,04,19,09,38,14.30
2015,04,19,09,39,14.40
2015,04,19,09,40,14.40
2015,04,19,09,41,14.50
2015,04,19,09,42,14.60
2015,04,19,09,43,14.60
2015,04,19,09,44,14.60
2015,04,19,09,45,14.60
2015,04,19,09,46,14.70
2015,04,19,09,47,14.70
2015,04,19,09,48,14.70
2015,04,19,09,49,14.70
2015,04,19,09,50,14.70
2015,04,19,09,51,14.80
2015,04,19,09,52,14.80
2015,04,19,09,53,14.80
2015,04,19,09,54,14.80
2015,04,19,09,55,14.80
2015,04,19,09,56,14.80
2015,04,19,09,57,14.80
2015,04,19,09,58,14.80
2015,04,19,09,59,14.80
2015,04,19,10,00,14.80
2015,04,19,10,01,14.80
2015,04,19,10,02,14.80
2015,04,19,10,03,14.80
2015,04,19,10,04,14.90
2015,04,19,10,05,14.90
2015,04,19,10,06,14.90
2015,04,19,10,07,14.90
2015,04,19,10,08,14.90
2015,04,19,10,09,15.00
2015,04,19,10,10,15.10
2015,04,19,10,11,15.10
2015,04,19,10,12,15.20
2015,04,19,10,13,15.20
2015,04,19,10,14,15.20
2015,04,19,10,15,15.20
2015,04,19,10,16,15.30
2015,04,19,10,17,15.30
2015,04,19,10,18,15.40
2015,04,19,10,19,15.40
2015,04,19,10,20,15.40
2015,04,19,10,21,15.40
2015,04,19,10,22,15.40
2015,04,19,10,23,15.50
2015,04,19,10,24,15.50
2015,04,19,10,25,15.60
2015,04,19,10,26,15.60
2015,04,19,10,27,15.70
2015,04,19,10,28,15.70
2015,04,19,10,29,15.70
2015,04,19,10,30,15.70
2015,04,19,10,31,15.80
2015,04,19,10,32,15.80
2015,04,19,10,33,15.80
2015,04,19,10,34,15.90
2015,04,19,10,35,15.90
2015,04,19,10,36,16.00
2015,04,19,10,37,16.00
2015,04,19,10,38,16.00
2015,04,19,10,39,16.10
2015,04,19,10,40,16.10
2015,04,19,10,41,16.10
2015,04,19,10,42,16.10
2015,04,19,10,43,16.10
2015,04,19,10,44,16.20
2015,04,19,10,45,16.20
2015,04,19,10,46,16.20
2015,04,19,10,47,16.30
2015,04,19,10,48,16.30
2015,04,19,10,49,16.30
2015,04,19,10,50,16.40
2015,04,19,10,51,16.50
2015,04,19,10,52,16.50
2015,04,19,10,53,16.60
2015,04,19,10,54,16.60
2015,04,19,10,55,16.60
2015,04,19,10,56,16.60
2015,04,19,10,57,16.60
2015,04,19,10,58,16.60
2015,04,19,10,59,16.60
2015,04,19,11,00,16.70
2015,04,19,11,01,16.80
2015,04,19,11,02,16.80
2015,04,19,11,03,16.80
2015,04,19,11,04,16.80
2015,04,19,11,05,16.80
2015,04,19,11,06,16.80
2015,04,19,11,07,16.80
2015,04,19,11,08,16.80
2015,04,19,11,09,16.80
2015,04,19,11,10,16.70
2015,04,19,11,11,16.70
2015,04,19,11,12,16.60
2015,04,19,11,13,16.60
2015,04,19,11,14,16.60
2015,04,19,11,15,16.60
2015,04,19,11,16,16.70
2015,04,19,11,17,16.80
2015,04,19,11,18,16.80
2015,04,19,11,19,16.80
2015,04,19,11,20,16.80
2015,04,19,11,21,16.80
2015,04,19,11,22,16.80
2015,04,19,11,23,16.80
2015,04,19,11,24,16.80
2015,04,19,11,25,16.80
2015,04,19,11,26,16.80
2015,04,19,11,27,16.80
2015,04,19,11,28,16.80
2015,04,19,11,29,16.80
2015,04,19,11,30,16.80
2015,04,19,11,31,16.80
2015,04,19,11,32,16.80
2015,04,19,11,33,16.80
2015,04,19,11,34,16.80
2015,04,19,11,35,16.90
2015,04,19,11,36,16.90
2015,04,19,11,37,17.00
2015,04,19,11,38,17.10
2015,04,19,11,39,17.20
2015,04,19,11,40,17.20
2015,04,19,11,41,17.30
2015,04,19,11,42,17.30
2015,04,19,11,43,17.20
2015,04,19,11,44,17.20
2015,04,19,11,45,17.30
2015,04,19,11,46,17.30
2015,04,19,11,47,17.30
2015,04,19,11,48,17.30
2015,04,19,11,49,17.40
2015,04,19,11,50,17.50
2015,04,19,11,51,17.50
2015,04,19,11,52,17.60
2015,04,19,11,53,17.60
2015,04,19,11,54,17.60
2015,04,19,11,55,17.70
2015,04,19,11,56,17.70
2015,04,19,11,57,17.70
2015,04,19,11,58,17.80
2015,04,19,11,59,17.90
2015,04,19,12,00,17.90
2015,04,19,12,01,17.90
2015,04,19,12,02,18.00
2015,04,19,12,03,18.00
2015,04,19,12,04,18.00
2015,04,19,12,05,18.10
2015,04,19,12,06,18.10
2015,04,19,12,07,18.20
2015,04,19,12,08,18.30
2015,04,19,12,09,18.30
2015,04,19,12,10,18.40
2015,04,19,12,11,18.40
2015,04,19,12,12,18.40
2015,04,19,12,13,18.30
2015,04,19,12,14,18.20
2015,04,19,12,15,18.20
2015,04,19,12,16,18.30
2015,04,19,12,17,18.30
2015,04,19,12,18,18.40
2015,04,19,12,19,18.40
2015,04,19,12,20,18.50
2015,04,19,12,21,18.60
2015,04,19,12,22,18.70
2015,04,19,12,23,18.80
2015,04,19,12,24,18.80
2015,04,19,12,25,18.70
2015,04,19,12,26,18.70
2015,04,19,12,27,18.70
2015,04,19,12,28,18.70
2015,04,19,12,29,18.70
2015,04,19,12,30,18.70
2015,04,19,12,31,18.70
2015,04,19,12,32,18.70
2015,04,19,12,33,18.70
2015,04,19,12,34,18.60
2015,04,19,12,35,18.60
2015,04,19,12,36,18.60
2015,04,19,12,37,18.60
2015,04,19,12,38,18.60
2015,04,19,12,39,18.60
2015,04,19,12,40,18.60
2015,04,19,12,41,18.60
2015,04,19,12,42,18.60
2015,04,19,12,43,18.60
2015,04,19,12,44,18.70
2015,04,19,12,45,18.80
2015,04,19,12,46,18.90
2015,04,19,12,47,18.90
2015,04,19,12,48,19.00
2015,04,19,12,49,19.10
2015,04,19,12,50,19.10
2015,04,19,12,51,19.20
2015,04,19,12,52,19.20
2015,04,19,12,53,19.20
2015,04,19,12,54,19.20
2015,04,19,12,55,19.20
2015,04,19,12,56,19.20
2015,04,19,12,57,19.20
2015,04,19,12,58,19.30
2015,04,19,12,59,19.30
2015,04,19,13,00,19.30
2015,04,19,13,01,19.30
2015,04,19,13,02,19.30
2015,04,19,13,03,19.40
2015,04,19,13,04,19.50
2015,04,19,13,05,19.60
2015,04,19,13,06,19.70
2015,04,19,13,07,19.70
2015,04,19,13,08,19.70
2015,04,19,13,09,19.80
2015,04,19,13,10,19.80
2015,04,19,13,11,19.80
2015,04,19,13,12,19.80
2015,04,19,13,13,19.80
2015,04,19,13,14,19.80
2015,04,19,13,15,19.80
2015,04,19,13,16,19.90
2015,04,19,13,17,19.90
2015,04,19,13,18,19.90
2015,04,19,13,19,19.80
2015,04,19,13,20,19.80
2015,04,19,13,21,19.70
2015,04,19,13,22,19.70
2015,04,19,13,23,19.60
2015,04,19,13,24,19.60
2015,04,19,13,25,19.60
2015,04,19,13,26,19.60
2015,04,19,13,27,19.50
2015,04,19,13,28,19.50
2015,04,19,13,29,19.50
2015,04,19,13,30,19.50
2015,04,19,13,31,19.50
2015,04,19,13,32,19.50
2015,04,19,13,33,19.50
2015,04,19,13,34,19.40
2015,04,19,13,35,19.40
2015,04,19,13,36,19.50
2015,04,19,13,37,19.50
2015,04,19,13,38,19.60
2015,04,19,13,39,19.60
2015,04,19,13,40,19.60
2015,04,19,13,41,19.50
2015,04,19,13,42,19.50
2015,04,19,13,43,19.60
2015,04,19,13,44,19.60
2015,04,19,13,45,19.70
2015,04,19,13,46,19.70
2015,04,19,13,47,19.70
2015,04,19,13,48,19.70
2015,04,19,13,49,19.80
2015,04,19,13,50,19.80
2015,04,19,13,51,19.90
2015,04,19,13,52,19.90
2015,04,19,13,53,19.80
2015,04,19,13,54,19.90
2015,04,19,13,55,19.90
2015,04,19,13,56,20.00
2015,04,19,13,57,20.00
2015,04,19,13,58,20.00
2015,04,19,13,59,20.00
2015,04,19,14,00,20.00
2015,04,19,14,01,19.90
2015,04,19,14,02,19.90
2015,04,19,14,03,19.90
2015,04,19,14,04,20.00
2015,04,19,14,05,20.10
2015,04,19,14,06,20.10
2015,04,19,14,07,20.20
2015,04,19,14,08,20.20
2015,04,19,14,09,20.30
2015,04,19,14,10,20.30
2015,04,19,14,11,20.30
2015,04,19,14,12,20.40
2015,04,19,14,13,20.40
2015,04,19,14,14,20.50
2015,04,19,14,15,20.60
2015,04,19,14,16,20.70
2015,04,19,14,17,20.80
2015,04,19,14,18,20.80
2015,04,19,14,19,20.90
2015,04,19,14,20,20.90
2015,04,19,14,21,21.00
2015,04,19,14,22,20.90
2015,04,19,14,23,20.90
2015,04,19,14,24,20.80
2015,04,19,14,25,20.80
2015,04,19,14,26,20.80
2015,04,19,14,27,20.80
2015,04,19,14,28,20.80
2015,04,19,14,29,20.90
2015,04,19,14,30,20.90
2015,04,19,14,31,20.80
2015,04,19,14,32,20.80
2015,04,19,14,33,20.70
2015,04,19,14,34,20.80
2015,04,19,14,35,20.80
2015,04,19,14,36,20.80
2015,04,19,14,37,20.80
2015,04,19,14,38,20.80
2015,04,19,14,39,20.90
2015,04,19,14,40,21.00
2015,04,19,14,41,21.00
2015,04,19,14,42,21.00
2015,04,19,14,43,20.90
2015,04,19,14,44,20.80
2015,04,19,14,45,20.70
2015,04,19,14,46,20.70
2015,04,19,14,47,20.80
2015,04,19,14,48,20.80
2015,04,19,14,49,20.90
2015,04,19,14,50,20.90
2015,04,19,14,51,20.90
2015,04,19,14,52,20.90
2015,04,19,14,53,20.90
2015,04,19,14,54,20.90
2015,04,19,14,55,20.90
2015,04,19,14,56,20.80
2015,04,19,14,57,20.80
2015,04,19,14,58,20.70
2015,04,19,14,59,20.70
2015,04,19,15,00,20.60
2015,04,19,15,01,20.60
2015,04,19,15,02,20.50
2015,04,19,15,03,20.40
2015,04,19,15,04,20.40
2015,04,19,15,05,20.40
2015,04,19,15,06,20.40
2015,04,19,15,07,20.30
2015,04,19,15,08,20.30
2015,04,19,15,09,20.20
2015,04,19,15,10,20.30
2015,04,19,15,11,20.30
2015,04,19,15,12,20.40
2015,04,19,15,13,20.40
2015,04,19,15,14,20.40
2015,04,19,15,15,20.50
2015,04,19,15,16,20.50
2015,04,19,15,17,20.60
2015,04,19,15,18,20.60
2015,04,19,15,19,20.60
2015,04,19,15,20,20.60
2015,04,19,15,21,20.50
2015,04,19,15,22,20.50
2015,04,19,15,23,20.40
2015,04,19,15,24,20.50
2015,04,19,15,25,20.50
2015,04,19,15,26,20.50
2015,04,19,15,27,20.40
2015,04,19,15,28,20.50
2015,04,19,15,29,20.50
2015,04,19,15,30,20.50
2015,04,19,15,31,20.50
2015,04,19,15,32,20.40
2015,04,19,15,33,20.40
2015,04,19,15,34,20.50
2015,04,19,15,35,20.50
2015,04,19,15,36,20.60
2015,04,19,15,37,20.70
2015,04,19,15,38,20.80
2015,04,19,15,39,20.90
2015,04,19,15,40,21.00
2015,04,19,15,41,21.10
2015,04,19,15,42,21.20
2015,04,19,15,43,21.10
2015,04,19,15,44,21.10
2015,04,19,15,45,21.00
2015,04,19,15,46,20.90
2015,04,19,15,47,20.90
2015,04,19,15,48,20.80
2015,04,19,15,49,20.90
2015,04,19,15,50,20.80
2015,04,19,15,51,20.80
2015,04,19,15,52,20.60
2015,04,19,15,53,20.50
2015,04,19,15,54,20.50
2015,04,19,15,55,20.40
2015,04,19,15,56,20.40
2015,04,19,15,57,20.40
2015,04,19,15,58,20.40
2015,04,19,15,59,20.40
2015,04,19,16,00,20.30
2015,04,19,16,01,20.30
2015,04,19,16,02,20.30
2015,04,19,16,03,20.20
2015,04,19,16,04,20.10
2015,04,19,16,05,20.10
2015,04,19,16,06,20.00
2015,04,19,16,07,20.00
2015,04,19,16,08,20.00
2015,04,19,16,09,20.00
2015,04,19,16,10,20.00
2015,04,19,16,11,19.90
2015,04,19,16,12,19.80
2015,04,19,16,13,19.80
2015,04,19,16,14,19.70
2015,04,19,16,15,19.70
2015,04,19,16,16,19.70
2015,04,19,16,17,19.70
2015,04,19,16,18,19.70
2015,04,19,16,19,19.70
2015,04,19,16,20,19.70
2015,04,19,16,21,19.70
2015,04,19,16,22,19.70
2015,04,19,16,23,19.80
2015,04,19,16,24,19.80
2015,04,19,16,25,19.80
2015,04,19,16,26,19.90
2015,04,19,16,27,19.90
2015,04,19,16,28,19.90
2015,04,19,16,29,19.90
2015,04,19,16,30,19.90
2015,04,19,16,31,19.90
2015,04,19,16,32,19.80
2015,04,19,16,33,19.80
2015,04,19,16,34,19.80
2015,04,19,16,35,19.80
2015,04,19,16,36,19.70
2015,04,19,16,37,19.80
2015,04,19,16,38,19.80
2015,04,19,16,39,19.90
2015,04,19,16,40,19.90
2015,04,19,16,41,20.00
2015,04,19,16,42,20.00
2015,04,19,16,43,20.10
2015,04,19,16,44,20.20
2015,04,19,16,45,20.20
2015,04,19,16,46,20.20
2015,04,19,16,47,20.10
2015,04,19,16,48,20.00
2015,04,19,16,49,20.00
2015,04,19,16,50,20.00
2015,04,19,16,51,20.00
2015,04,19,16,52,20.10
2015,04,19,16,53,20.10
2015,04,19,16,54,20.10
2015,04,19,16,55,20.20
2015,04,19,16,56,20.20
2015,04,19,16,57,20.20
2015,04,19,16,58,20.10
2015,04,19,16,59,20.10
2015,04,19,17,00,20.10
2015,04,19,17,01,20.20
2015,04,19,17,02,20.20
2015,04,19,17,03,20.20
2015,04,19,17,04,20.20
2015,04,19,17,05,20.30
2015,04,19,17,06,20.30
2015,04,19,17,07,20.30
2015,04,19,17,08,20.30
2015,04,19,17,09,20.30
2015,04,19,17,10,20.30
2015,04,19,17,11,20.30
2015,04,19,17,12,20.30
2015,04,19,17,13,20.20
2015,04,19,17,14,20.20
2015,04,19,17,15,20.20
2015,04,19,17,16,20.20
2015,04,19,17,17,20.20
2015,04,19,17,18,20.20
2015,04,19,17,19,20.20
2015,04,19,17,20,20.20
2015,04,19,17,21,20.20
2015,04,19,17,22,20.20
2015,04,19,17,23,20.10
2015,04,19,17,24,20.10
2015,04,19,17,25,20.10
2015,04,19,17,26,20.10
2015,04,19,17,27,20.20
2015,04,19,17,28,20.20
2015,04,19,17,29,20.10
2015,04,19,17,30,20.10
2015,04,19,17,31,20.10
2015,04,19,17,32,20.10
2015,04,19,17,33,20.10
2015,04,19,17,34,20.10
2015,04,19,17,35,20.10